Home   Weather   USA   Auburn   Past weeks
Flag for USA

Past Weather in Auburn, California, USA — Yesterday and Last 2 Weeks

Currently: 63 °F. Clear. (Weather station: Auburn Municipal Airport, USA). See more current weather

Past Weather in Auburn — Graph

°F

Auburn Temperature Yesterday

Maximum temperature yesterday: 77 °F (at 3:35 pm)
Minimum temperature yesterday: 55 °F (at 12:15 am)
Average temperature yesterday: 66 °F

High & Low Weather Summary for the Past Weeks

  Temperature Humidity Pressure
High 79 °F (May 8, 4:35 pm) 100% (Apr 25, 12:35 am) 30.15 "Hg (Apr 25, 12:35 am)
Low 45 °F (Apr 27, 1:55 am) 40% (May 2, 1:55 pm) 29.80 "Hg (Apr 25, 6:35 pm)
Average 58 °F 77% 29.97 "Hg
* Reported Apr 23 8:15 pm — May 8 8:35 pm, Auburn. Weather by CustomWeather, © 2026

Note: Actual official high and low records may vary slightly from our data, if they occured in-between our weather recording intervals... More about our weather records

Auburn Weather History for the Previous 24 Hours

Scroll right to see more
  Conditions Comfort    
Time   Temp Weather Wind   Humidity Barometer Visibility
8:35 pm
Fri, May 8
63 °F Clear. No wind 88% 29.99 "Hg 10 mi
8:15 pm 63 °F Clear. No wind 88% 29.98 "Hg 10 mi
7:55 pm 68 °F Sunny. No wind 73% 29.98 "Hg 10 mi
7:35 pm 73 °F Sunny. No wind 57% 29.98 "Hg 10 mi
6:55 pm 77 °F Sunny. 5 mph 47% 29.98 "Hg 10 mi
6:15 pm 77 °F Sunny. 6 mph 54% 29.99 "Hg 10 mi
5:35 pm 77 °F Sunny. 8 mph 51% 29.99 "Hg 10 mi
4:55 pm 77 °F Sunny. 5 mph 51% 30.00 "Hg 10 mi
4:35 pm 79 °F Sunny. 6 mph 48% 30.00 "Hg 10 mi
4:15 pm 77 °F Sunny. 6 mph 47% 30.01 "Hg 10 mi
3:55 pm 77 °F Sunny. 7 mph 54% 30.01 "Hg 10 mi
3:15 pm 77 °F Sunny. 6 mph 54% 30.03 "Hg 10 mi
2:55 pm 75 °F Sunny. 6 mph 61% 30.04 "Hg 10 mi
2:35 pm 75 °F Sunny. 5 mph 61% 30.05 "Hg 10 mi
2:15 pm 75 °F Sunny. 7 mph 61% 30.05 "Hg 10 mi
1:55 pm 75 °F Sunny. 6 mph 61% 30.05 "Hg 10 mi
1:35 pm 73 °F Sunny. 9 mph 61% 30.06 "Hg 10 mi
12:55 pm 73 °F Sunny. 8 mph 65% 30.06 "Hg 10 mi
12:35 pm 72 °F Sunny. 8 mph 69% 30.06 "Hg 10 mi
12:15 pm 72 °F Sunny. 9 mph 69% 30.07 "Hg 10 mi
11:55 am 72 °F Sunny. 9 mph 69% 30.07 "Hg 10 mi
11:35 am 73 °F Sunny. 5 mph 65% 30.07 "Hg 10 mi
10:55 am 72 °F Sunny. 5 mph 65% 30.07 "Hg 10 mi
10:35 am 70 °F Sunny. 6 mph 69% 30.07 "Hg 10 mi
10:15 am 72 °F Sunny. 6 mph 65% 30.07 "Hg 10 mi
9:55 am 72 °F Sunny. 5 mph 50% 30.06 "Hg 10 mi
9:35 am 70 °F Sunny. 3 mph 53% 30.06 "Hg 10 mi
8:55 am 68 °F Sunny. No wind 49% 30.06 "Hg 10 mi
8:35 am 68 °F Sunny. No wind 46% 30.06 "Hg 10 mi
8:15 am 66 °F Sunny. 5 mph 49% 30.06 "Hg 10 mi
7:55 am 64 °F Sunny. 7 mph 52% 30.05 "Hg 10 mi
7:35 am 63 °F Sunny. 8 mph 56% 30.05 "Hg 10 mi
6:55 am 59 °F Sunny. 6 mph 63% 30.04 "Hg 10 mi
6:15 am 57 °F Sunny. 5 mph 67% 30.04 "Hg 10 mi
5:35 am 57 °F Clear. 5 mph 72% 30.03 "Hg 10 mi
4:55 am 57 °F Clear. 5 mph 77% 30.03 "Hg 10 mi
4:35 am 59 °F Clear. 6 mph 72% 30.03 "Hg 9 mi
3:55 am 59 °F Clear. 7 mph 82% 30.03 "Hg 10 mi
3:35 am 59 °F Clear. 9 mph 88% 30.03 "Hg 10 mi
3:15 am 59 °F Clear. 7 mph 88% 30.03 "Hg 10 mi
2:55 am 59 °F Clear. 7 mph 94% 30.03 "Hg 10 mi
2:35 am 59 °F Clear. 7 mph 94% 30.03 "Hg 10 mi
1:55 am 61 °F Clear. 7 mph 88% 30.03 "Hg 10 mi
1:35 am 61 °F Clear. 8 mph 94% 30.03 "Hg 10 mi
1:15 am 63 °F Clear. 5 mph 88% 30.03 "Hg 10 mi
12:35 am 63 °F Clear. No wind 88% 30.03 "Hg 10 mi
12:15 am 64 °F Clear. 6 mph 88% 30.03 "Hg 10 mi
11:55 pm
Thu, May 7
64 °F Clear. 6 mph 88% 30.02 "Hg 10 mi
11:35 pm 64 °F Clear. 8 mph 88% 30.03 "Hg 10 mi
10:55 pm 63 °F Clear. 6 mph 94% 30.03 "Hg 10 mi
10:35 pm 63 °F Clear. No wind 94% 30.03 "Hg 10 mi
9:55 pm 64 °F Clear. No wind 88% 30.03 "Hg 10 mi
9:35 pm 63 °F Clear. No wind 94% 30.03 "Hg 10 mi
Weather by CustomWeather, © 2026

See weather overview